This is the latest recevied weather packets stored in our database for station/object DO3HUM-5. If no packets are shown the sender has not sent any weather packets the latest 10 day(s).
| Time | Temp. | Humidity | Pressure | Rain* | Wind** | Luminosity | Snow |
|---|---|---|---|---|---|---|---|
| 1777767931 | 10° C | 80% | 1021.9 hPa | 0 mm | - | - | - |
| 1777767323 | 10.56° C | 80% | 1022 hPa | 0 mm | - | - | - |
| 1777766720 | 10.56° C | 79% | 1022.2 hPa | 0 mm | - | - | - |
| 1777766119 | 11.11° C | 78% | 1022.1 hPa | 0 mm | - | - | - |
| 1777765569 | 10.56° C | 79% | 1022.2 hPa | 0 mm | - | - | - |
| 1777764966 | 10.56° C | 80% | 1022.1 hPa | 0 mm | - | - | - |
| 1777764358 | 10.56° C | 80% | 1022.2 hPa | 0 mm | - | - | - |
| 1777763755 | 10.56° C | 79% | 1022.3 hPa | 0 mm | - | - | - |
| 1777763147 | 11.11° C | 79% | 1022.3 hPa | 0 mm | - | - | - |
| 1777762544 | 11.11° C | 78% | 1022.3 hPa | 0 mm | - | - | - |
| 1777761943 | 11.67° C | 77% | 1022.3 hPa | 0 mm | - | - | - |
| 1777761332 | 11.67° C | 76% | 1022.4 hPa | 0 mm | - | - | - |
| 1777760730 | 11.67° C | 75% | 1022.4 hPa | 0 mm | - | - | - |
| 1777760124 | 12.22° C | 73% | 1022.4 hPa | 0 mm | - | - | - |
| 1777759521 | 12.78° C | 73% | 1022.5 hPa | 0 mm | - | - | - |
| 1777758972 | 12.78° C | 73% | 1022.5 hPa | 0 mm | - | - | - |
| 1777758368 | 12.78° C | 73% | 1022.7 hPa | 0 mm | - | - | - |
| 1777757768 | 13.33° C | 72% | 1022.6 hPa | 0 mm | - | - | - |
| 1777757157 | 13.33° C | 70% | 1022.6 hPa | 0 mm | - | - | - |
| 1777756546 | 12.78° C | 71% | 1022.8 hPa | 0 mm | - | - | - |
| 1777755943 | 12.78° C | 72% | 1022.8 hPa | 0 mm | - | - | - |
| 1777755335 | 13.33° C | 72% | 1022.9 hPa | 0 mm | - | - | - |
| 1777754724 | 13.89° C | 70% | 1022.9 hPa | 0 mm | - | - | - |
| 1777754120 | 14.44° C | 70% | 1023.1 hPa | 0 mm | - | - | - |
| 1777753519 | 14.44° C | 70% | 1022.9 hPa | 0 mm | - | - | - |
* Rain latest hour (hover to see other rain measurements)
** Current wind speed in m/s (hover to see current wind gust speed)